Tracking 35331 objects as of 14-Sep-2026
HD Live streaming from Space Station
objects crossing your sky now

DELTA 1 DEB


DELTA 1 DEB is no longer on orbit


NORAD ID: 8434
Int'l Code: 1972-058FP
Launch date: July 23, 1972
Source: United States (US)
Launch site: AIR FORCE WESTERN TEST RANGE (AFWTR)
Decay date: 1976-01-31

Note: This is SATELLITE DEBRIS
Your satellite tracking list
Your tracking list is empty




NASA's NSSDC Master Catalog

Two Line Element Set (TLE):
1 08434U 72058 FP 76027.93756723  .02206014 +00000-0 +00000-0 0  9990
2 08434 097.7803 106.9862 0023871 284.9647 074.8941 16.17623666187191
Source of the keplerian elements: AFSPC